Location: Bratislava
(48.1500°N, 17.1170°E)
Time: 14:06:14
(UTC+01:00)

N. Korean satellite - Visible Passes

Search period start: 19 November 2018 00:00
Search period end: 29 November 2018 00:00
Orbit: 457 x 511 km, 97.2° (Epoch: 18 November)

Date Brightness Start Highest point End Pass type
(mag) Time Alt. Az. Time Alt. Az. Time Alt. Az.
19 Nov 6.4 06:23:08 10° NNE 06:26:36 85° W 06:30:02 10° SSW visible
19 Nov 6.5 17:02:05 10° SSE 17:05:37 60° ENE 17:09:08 10° N visible
19 Nov 10.2 18:38:25 10° WSW 18:39:27 11° W 18:40:28 10° WNW visible
20 Nov 7.7 05:58:43 10° NNE 06:02:03 46° E 06:05:22 10° S visible
20 Nov 7.3 16:38:01 10° SE 16:41:13 31° ENE 16:44:22 10° N visible
20 Nov 9.4 18:12:00 10° SW 18:14:43 20° W 18:17:25 10° NW visible
21 Nov 9.1 05:34:35 10° NE 05:37:26 23° E 05:40:15 10° SSE visible
21 Nov 8.1 17:46:44 10° SSW 17:50:05 37° W 17:53:24 10° NNW visible
22 Nov 9.9 05:11:07 10° ENE 05:12:43 13° E 05:14:19 10° ESE visible
22 Nov 6.7 17:21:57 10° S 17:25:31 76° WSW 17:29:03 10° NNW visible
23 Nov 6.5 06:18:31 10° NNE 06:21:59 85° ESE 06:25:25 10° SSW visible
23 Nov 6.6 16:57:33 10° SSE 17:01:02 53° ENE 17:04:27 10° N visible
23 Nov 10.0 18:33:20 10° WSW 18:34:47 12° W 18:36:14 10° WNW visible
24 Nov 8.0 05:54:07 10° NNE 05:57:25 40° E 06:00:41 10° S visible
24 Nov 7.4 16:33:34 10° SE 16:36:36 27° ENE 16:39:38 10° N visible
24 Nov 9.2 18:07:15 10° SSW 18:10:04 22° W 18:12:52 10° NW visible
25 Nov 9.3 05:30:03 10° NE 05:32:46 21° E 05:35:27 10° SE visible
25 Nov 7.9 17:42:04 10° S 17:45:26 42° W 17:48:47 10° NNW visible
26 Nov 10.1 05:06:50 10° ENE 05:08:01 11° E 05:09:13 10° ESE visible
26 Nov 6.5 17:17:20 10° SSE 17:20:52 86° WSW 17:24:22 10° NNW visible
27 Nov 6.7 06:13:51 10° NNE 06:17:18 75° ESE 06:20:46 10° S visible
27 Nov 6.7 16:53:00 10° SSE 16:56:22 46° ENE 16:59:44 10° N visible
27 Nov 9.9 18:28:19 10° WSW 18:30:05 13° W 18:31:51 10° WNW visible
28 Nov 8.2 05:49:30 10° NNE 05:52:43 36° E 05:55:57 10° SSE visible
28 Nov 9.0 18:02:27 10° SSW 18:05:22 24° W 18:08:17 10° NW visible
